Location: Caltech
(34.1382°N, 118.1253°W)
Time: 12:48:54
(UTC-07:00)

Iridium 21 - Visible Passes

Search period start: 31 August 2015 00:00
Search period end: 10 September 2015 00:00
Orbit: 776 x 779 km, 86.4° (Epoch: 31 August)

Date Brightness Start Highest point End Pass type
(mag) Time Alt. Az. Time Alt. Az. Time Alt. Az.
31 Aug 8.1 22:25:56 10° NNE 22:26:12 11° NNE 22:26:12 11° NNE visible
01 Sep 8.4 23:32:48 10° NNW 23:33:14 12° NNW 23:33:14 12° NNW visible
02 Sep 8.1 22:59:04 10° N 22:59:47 14° N 22:59:47 14° N visible
03 Sep 8.0 22:25:42 10° N 22:26:22 14° NNE 22:26:22 14° NNE visible
04 Sep 8.0 21:52:49 10° NNE 21:52:56 11° NNE 21:52:56 11° NNE visible
04 Sep 8.5 23:33:15 10° NNW 23:33:24 11° NNW 23:33:24 11° NNW visible
05 Sep 8.2 22:59:14 10° N 23:00:00 14° NNW 23:00:00 14° NNW visible
06 Sep 7.9 22:25:38 10° N 22:26:34 15° N 22:26:34 15° N visible
07 Sep 7.9 21:52:26 10° NNE 21:53:10 14° NNE 21:53:10 14° NNE visible
08 Sep 8.3 22:59:32 10° NNW 23:00:15 14° NNW 23:00:15 14° NNW visible
09 Sep 7.9 22:25:43 10° N 22:26:52 17° N 22:26:52 17° N visible
